Weather in Novovolinsk

Ukraine / Volyn Oblast     50°43′31″N   24°09′45″E
temp.,
°C
wind,
m/s
gust,
m/s
humid.,
%
clouds,
%
prec.,
mm/h
press.,
hPa
HPBL,
m
11 april, sun
sun1100:00+7ssw410755 0.0 1021169
03:00+6s49786 0.0 1022148
06:00+5s4107893 0.0 1023173
09:00+9sse4968100 0.0 1023237
12:00+14sse7950100 0.0 1023851
15:00+16sse78435 0.0 10221401
18:00+15sse6850100 0.0 10211401
21:00+11se61456100 0.0 1022368
12 april, mon
mon1200:00+9sse61456100 0.0 1023414
03:00+8se51258100 0.0 1022306
06:00+6sse496494 0.0 1022206
09:00+9se5764100 0.0 1021195
12:00+10se596783 0.0 1021317
15:00+17s574994 0.0 10191800
18:00+16s4757100 0.0 1018412
21:00+12w347799 0.1 102089
13 april, tue
tue1300:00+11sse1179100 0.1 102019
03:00+10nw238497 0.1 101960
06:00+8n369699 0.0 1020160
09:00+8n4587100 0.0 1020282
12:00+10n4483100 0.0 1020587
15:00+11n5680100 0.1 1019672
18:00+11n5779100 0.0 1018656
21:00+9n61080100 0.0 1018454
14 april, wed
wed1400:00+7nne71183100 0.0 1017462
03:00+5n61083100 0.0 1016421
06:00+5n61078100 0.0 1016485
09:00+5n6976100 0.0 1016556
12:00+5n6882100 1.0 1016614
15:00+4nnw6888100 2.1 1016647
18:00+3nnw5792100 0.8 1015581
21:00+2nnw4698100 1.1 1016399
15 april, thu
thu1500:00+2nw3599100 0.3 1016294
03:00+2nw2399100 0.4 1015249
06:00+2nw2298100 0.0 1016189
09:00+3nw1195100 0.0 1016168
12:00+5nw1190100 0.0 1017247
15:00+9nw228090 0.0 1017612
18:00+10wnw3477100 0.1 1016524
21:00+8n61090100 0.5 1017453